User: anonymous   Login
Location: Bergen
(60.3910°N, 5.3250°E)
Time: 03:27:00
(UTC+02:00)
Language:

Cosmos 1943 - Orbit

View from above orbital plane
View from above orbital plane
View from above satellite
View from above satellite

Ground track
Ground track

The orbit data is extracted from the following two-line orbital elements,

1 19119U 88039A   15110.08034714  .00000378  00000-0  21958-3 0  9990
2 19119 071.0031 318.8112 0011904 187.3716 338.3709 14.15007098390467
Epoch (UTC): 20 April 2015 01:55:41
Eccentricity: 0.0011904
inclination: 71.0031°
perigee height: 833 km
apogee height: 851 km
right ascension of ascending node: 318.8112°
argument of perigee: 187.3716°
revolutions per day: 14.15007098
mean anomaly at epoch: 338.3709°
orbit number at epoch: 39046

The dashed part of the orbit path shows where the satellite is in the earth's shadow,  

DLR